This is the latest recevied weather packets stored in our database for station/object KB3GVC-13. If no packets are shown the sender has not sent any weather packets the latest 10 day(s).
| Time | Temp. | Humidity | Pressure | Rain* | Wind** | Luminosity | Snow |
|---|---|---|---|---|---|---|---|
| 1777518974 | 9.44° C | 99% | 1009.6 hPa | 1.78 mm | - | - | - |
| 1777518671 | 9.44° C | 99% | 1009.6 hPa | 1.78 mm | - | - | - |
| 1777518368 | 9.44° C | 99% | 1009.5 hPa | 1.78 mm | - | - | - |
| 1777518063 | 9.44° C | 99% | 1009.4 hPa | 4.83 mm | - | - | - |
| 1777517759 | 9.44° C | 99% | 1009.9 hPa | 4.83 mm | - | - | - |
| 1777517455 | 9.44° C | 99% | 1010.4 hPa | 4.32 mm | - | - | - |
| 1777517154 | 9.44° C | 99% | 1010.2 hPa | 4.32 mm | - | - | - |
| 1777516852 | 9.44° C | 99% | 1010.1 hPa | 4.32 mm | - | - | - |
| 1777516548 | 9.44° C | 99% | 1010.5 hPa | 7.87 mm | - | - | - |
| 1777516244 | 10° C | 99% | 1010.7 hPa | 6.6 mm | - | - | - |
| 1777515941 | 10° C | 99% | 1011.2 hPa | 1.27 mm | - | - | - |
| 1777515638 | 10° C | 99% | 1011.1 hPa | 3.05 mm | - | - | - |
| 1777515335 | 10° C | 99% | 1011.5 hPa | 1.78 mm | - | - | - |
| 1777515030 | 10° C | 98% | 1011.8 hPa | 4.32 mm | - | - | - |
| 1777514726 | 10° C | 98% | 1011.5 hPa | 25.91 mm | - | - | - |
| 1777514424 | 10° C | 98% | 1011.5 hPa | 27.69 mm | - | - | - |
| 1777514120 | 10° C | 98% | 1011.6 hPa | 10.67 mm | - | - | - |
| 1777513818 | 10° C | 97% | 1011.1 hPa | 8.89 mm | - | - | - |
| 1777513515 | 10° C | 97% | 1010.7 hPa | 7.87 mm | - | - | - |
| 1777513212 | 10° C | 97% | 1010.8 hPa | 4.32 mm | - | - | - |
| 1777512908 | 10° C | 97% | 1010.7 hPa | 1.27 mm | - | - | - |
| 1777511997 | 10° C | 97% | 1010.3 hPa | 1.78 mm | - | - | - |
| 1777511696 | 10° C | 97% | 1010.2 hPa | 1.78 mm | - | - | - |
| 1777511393 | 10° C | 97% | 1010.5 hPa | 1.27 mm | - | - | - |
| 1777510483 | 10° C | 96% | 1010.2 hPa | 3.05 mm | - | - | - |
* Rain latest hour (hover to see other rain measurements)
** Current wind speed in m/s (hover to see current wind gust speed)